sat.trackr.live / text

‹ back to catalog

STARLINK-6178

NORAD 56387 · 2023-061P

PAYLOAD ACTIVE UNKNOWN

§ Identity

Operator
Country
US
Launch date
2023-05-04
Launch site
AFETR
Launch vehicle
Mass (kg)
RCS (m²)

Purposes: comms

External: N2YO · Heavens-Above · Gunter

§ Orbital elements

Epoch: 2026-09-20T03:47:51.956736Z

Period
94.27 min
Inclination
43.0029°
Eccentricity
0.0001446
Mean motion
15.27578877 rev/d
Perigee alt
482.1 km
Apogee alt
484.0 km
Semi-major
6,861.2 km
B*
5.5294e-5
RAAN
179.4268°
Arg perigee
284.9395°
Mean anomaly
75.1297°
Rev number
18,649

§ Raw data

STARLINK-61781 56387U 23061P   26263.15824024  .00001260  00000+0  55294-4 0  99932 56387  43.0029 179.4268 0001446 284.9395  75.1297 15.27578877186497

JSON: /api/v1/satellites/56387 · /tle

For live sub-satellite position, see the globe view (requires WebGL).

§ Visibility from observer

Set your observer location to see the next 7 days of passes ≥ 10°. The values pass through the URL so the page stays shareable.

No JS? Fill the form by hand. The geolocation button needs JavaScript.